Погода в Печерске

Россия / Смоленская область     54°50′57″N   32°02′12″E
темп.,
°C
ветер,
м/с
пор.,
м/с
влажн.,
%
обл.,
%
осадки,
мм/ч
давл.,
гПа
погр.,
м
2 июля, сб
сб200:00+14в411740 0.0 1022183
03:00+11юв37820 0.0 1023112
06:00+11ююв36840 0.0 1024135
09:00+17ююв34640 0.0 1024348
12:00+20ю22560 0.0 1024758
15:00+23ююз11544 0.0 10231065
18:00+23з22615 0.0 10221105
21:00+18юз22838 0.0 102116
3 июля, вс
вс300:00+16зюз229062 0.0 102123
03:00+15зюз3392100 0.0 102135
06:00+16з229157 0.0 102042
09:00+21зюз227899 0.0 1020281
12:00+24з2262100 0.0 1020819
15:00+26з115711 0.0 1019857
18:00+26зюз226224 0.0 1018818
21:00+21з338422 0.2 101829
4 июля, пн
пн400:00+18зсз229099 0.0 101816
03:00+17з2390100 0.0 101927
06:00+18зсз2388100 0.0 101849
09:00+23зсз227428 0.0 1019326
12:00+26зюз22635 0.0 1018853
15:00+27юз225628 0.8 10171378
18:00+26юз45695 0.0 1017579
21:00+21зюз33840 0.2 101726
5 июля, вт
вт500:00+18юз228758 0.0 101811
03:00+17ююз228940 0.0 101815
06:00+18ю22914 0.0 101844
09:00+23ююз34745 0.0 1018396
12:00+26ююз3358100 0.2 10171032
15:00+27ю335562 0.2 10171425
18:00+26ю2366100 0.0 1016717
21:00+22ююв1176100 0.0 101511
6 июля, ср
ср600:00+21юв368023 0.4 1015125
03:00+17юз239559 1.4 101544
06:00+18з3594100 0.2 1014125
09:00+20ссз3388100 0.4 1014321
12:00+23сз3371100 0.0 1014828
15:00+21зсз6680100 0.1 1015674
18:00+19сз578199 0.2 1015609
21:00+14зсз3592100 0.9 1016124